User: anonymous   Login
Location: Alsip
(41.6689°N, 87.7387°W)
Time: 12:31:15
(UTC+00:00)
Language:

GEOS 3 Rocket - Orbit

View from above orbital plane
View from above orbital plane
View from above satellite
View from above satellite

Ground track
Ground track

The orbit data is extracted from the following two-line orbital elements,

1 07735U 75027B   21126.93759165 -.00000147  00000-0  13266-4 0  9995
2 07735 114.9738 161.5458 0048806 225.4328 134.2762 14.24636942392403
Epoch (UTC): 06 May 2021 22:30:07
Eccentricity: 0.0048806
inclination: 114.9738°
perigee height: 774 km
apogee height: 845 km
right ascension of ascending node: 161.5458°
argument of perigee: 225.4328°
revolutions per day: 14.24636942
mean anomaly at epoch: 134.2762°
orbit number at epoch: 39240

The dashed part of the orbit path shows where the satellite is in the earth's shadow,  

DLR